Informationen zur Loipe auf der Atzenberger Höhe
 
19.01.2019Höhe
ü. NN
ZeitTemperatur (°C)Nieder-
schlag
Luft-
feuchte
Luft-
druck
Wind
StationaktuellMinimumMaximumaktuellMaximum
Aldingen654 m22:26-6,1-10,0 (05:59)-2,0 (14:43)0,0 l/m²92%1016,35,6 km/h (2 Bft) SO14,8 km/h (3 Bft) S-SO (13:07)
Allmannsweiler625 m22:25-9,7-9,7 (22:20)-2,8 (15:25)0,0 l/m²93%1015,60,0 km/h (0 Bft) SO12,9 km/h (3 Bft) SW (13:50)
Allmendingen541 m22:25-9,0-10,2 (07:25)-3,4 (00:35)0,0 l/m²90%1015,90,0 km/h (0 Bft) S-SW16,1 km/h (3 Bft) SO (09:05)
Altshausen574 m22:25-8,4-8,4 (22:14)-2,3 (14:44)0,0 l/m²88%1011,60,0 km/h (0 Bft) W-SW11,3 km/h (2 Bft) N-NO (00:05)
Amstetten-Reutti663 m22:25-7,3-8,0 (06:10)-4,1 (14:40)0,0 l/m²94%1015,50,0 km/h (0 Bft) S-SO27,4 km/h (4 Bft) O (09:45)
Amtzell-Grenis677 m22:25-8,3-8,4 (22:15)-2,1 (14:15)0,0 l/m²88%1016,96,4 km/h (2 Bft) N-NO16,1 km/h (3 Bft) O-SO (00:00)
Aulendorf570 m22:25-8,2-8,2 (22:17)-2,5 (15:13)0,0 l/m²86%1015,00,0 km/h (0 Bft) S-SW14,5 km/h (3 Bft) NO (00:34)
Bad Krozingen233 m22:25-3,7-5,7 (08:50)0,4 (15:35)0,0 l/m²92%1015,30,0 km/h (0 Bft) O6,6 km/h (2 Bft) W-NW (13:25)
Bad Saulgau595 m22:25-7,9-7,9 (22:20)-1,9 (15:15)0,0 l/m²90%1014,41,6 km/h (1 Bft) W-NW12,9 km/h (3 Bft) W (07:00)
Bad Saulgau-Lampertsweiler627 m22:25-7,6-7,6 (22:25)-2,8 (00:00)0,0 l/m²88%1017,80,0 km/h (0 Bft) O-SO14,5 km/h (3 Bft) S-SO (10:50)
Bad Schussenried572 m22:25-6,9-7,1 (20:40)-2,6 (15:10)0,0 l/m²90%1013,80,0 km/h (0 Bft) SW11,3 km/h (2 Bft) O-NO (00:15)
Bergatreute615 m22:25-10,2-10,6 (22:10)-2,0 (14:20)0,0 l/m²94%1015,94,8 km/h (1 Bft) N12,9 km/h (3 Bft) O-NO (00:00)
Biberach (Riss), Boehringer533 m22:20-7,9-8,2 (22:00)-2,9 (00:00)0,0 l/m²94%1013,90,7 km/h (0 Bft) W-NW16,6 km/h (3 Bft) S (13:50)
Biberach (Riss), Realschule553 m22:25-9,2-9,2 (22:05)-3,2 (00:00)0,0 l/m²92%1016,80,0 km/h (0 Bft) O-SO16,1 km/h (3 Bft) W-SW (12:55)
Bodnegg-Rotheidlen677 m22:25-8,0-8,1 (06:20)-2,7 (14:25)0,0 l/m²93%1015,70,0 km/h (0 Bft) W-NW14,5 km/h (3 Bft) O (00:00)
Burgrieden523 m22:25-7,4-7,4 (22:25)-3,2 (00:00)0,0 l/m²87%1015,60,0 km/h (0 Bft) S12,9 km/h (3 Bft) S (17:35)
Burgrieden-Hochstetten510 m22:25-7,8-7,8 (22:20)-2,8 (23:00)0,0 l/m²91%1015,73,2 km/h (1 Bft) SO14,5 km/h (3 Bft) SO (08:15)
Donauwörth411 m22:25-6,6-6,6 (22:25)-0,8 (15:05)0,0 l/m²91%1015,90,0 km/h (0 Bft) O-SO22,5 km/h (4 Bft) O (10:45)
Ebersbach579 m22:25-8,7-8,8 (22:25)-2,6 (00:00)0,0 l/m²93%1016,40,0 km/h (0 Bft) O17,7 km/h (3 Bft) O-NO (00:00)
Ebersbach-Boos605 m22:25-9,1-9,1 (22:25)-2,5 (15:15)0,0 l/m²93%1016,30,0 km/h (0 Bft) O-SO22,5 km/h (4 Bft) O (00:05)
Ebersbach-Menzenweiler661 m22:25-6,9-6,9 (21:55)-3,1 (15:05)0,0 l/m²95%1016,16,4 km/h (2 Bft) O-NO29,0 km/h (5 Bft) O-NO (00:00)
Ehingen535 m22:25-8,5-8,5 (22:25)-3,7 (00:50)0,0 l/m²87%1015,80,0 km/h (0 Bft) W-SW12,8 km/h (3 Bft) W-SW (08:50)
Erlenmoos645 m22:25-9,2-9,2 (22:20)-2,6 (15:15)0,0 l/m²85%1015,80,0 km/h (0 Bft) O-NO0,0 km/h (0 Bft) W (00:00)
Ertingen569 m22:30-7,4-7,4 (22:25)-2,8 (15:20)0,0 l/m²90%1015,30,0 km/h (0 Bft) O-SO12,9 km/h (3 Bft) N-NO (07:10)
Friedrichshafen405 m22:25-5,2-5,2 (22:25)2,1 (15:25)0,0 l/m²88%1015,88,0 km/h (2 Bft) N-NO12,9 km/h (3 Bft) O (23:10)
Günzburg443 m22:25-7,0-7,1 (21:20)-2,2 (15:09)0,0 l/m²89%1013,20,0 km/h (0 Bft) W14,5 km/h (3 Bft) O-SO (09:25)
Höchsten802 m22:25-6,0-7,7 (08:35)-4,1 (14:50)0,0 l/m²93%1013,50,0 km/h (0 Bft) SO38,6 km/h (5 Bft) N-NO (00:35)
Horgenzell618 m22:25-5,1-5,2 (03:50)-3,7 (00:00)0,0 l/m²90%1013,48,0 km/h (2 Bft) O-NO19,3 km/h (3 Bft) NO (00:25)
Hoßkirch632 m22:25-8,8-8,8 (22:20)-2,7 (14:25)0,0 l/m²92%1014,70,0 km/h (0 Bft) SW20,9 km/h (4 Bft) O-NO (00:35)
Isny, Am Dreifingerbach695 m22:25-9,9-11,4 (06:00)-2,3 (15:05)0,0 l/m²90%1015,88,0 km/h (2 Bft) O8,0 km/h (2 Bft) O (22:25)
Isny, Weidachweg706 m22:25-11,0-11,7 (08:20)-1,3 (14:10)0,0 l/m²89%1017,33,2 km/h (1 Bft) O11,3 km/h (2 Bft) SW (02:20)
Kappel-Grafenhausen163 m22:20-3,4-4,9 (08:20)2,4 (14:45)0,0 l/m²90%1013,10,0 km/h (0 Bft) N6,4 km/h (2 Bft) N-NO (10:25)
Kirchberg an der Iller584 m22:25-8,2-8,3 (22:15)-3,2 (23:00)0,0 l/m²88%1005,40,0 km/h (0 Bft) SO8,0 km/h (2 Bft) S-SW (01:55)
Kißlegg-Staibshof709 m22:25-7,1-7,2 (08:10)-1,4 (15:20)0,0 l/m²96%1015,50,0 km/h (0 Bft) N-NO11,3 km/h (2 Bft) O-NO (00:00)
Kressbronn398 m22:28-4,9-5,1 (07:56)-0,4 (14:52)0,0 l/m²84%1014,50,0 km/h (0 Bft) NO12,9 km/h (3 Bft) NO (01:08)
Kreuzthal-Steinberg-Alpe930 m22:10-6,1-10,0 (08:00)2,6 (12:50)0,0 l/m²100%1015,00,4 km/h (0 Bft) O13,7 km/h (3 Bft) W-NW (00:00)
Kreuzthal-Steinberggipfel1040 m22:20-3,6-8,9 (07:50)0,1 (14:10)-84%1015,011,9 km/h (3 Bft) SW22,7 km/h (4 Bft) O-SO (00:40)
Kristberg im Montafon (AT)1425 m22:25-8,2-9,5 (05:20)3,1 (12:15)0,0 l/m²70%1015,33,2 km/h (1 Bft) N12,9 km/h (3 Bft) N (09:00)
Laupheim500 m22:25-7,4-7,4 (22:20)-3,2 (00:00)0,0 l/m²90%1015,14,8 km/h (1 Bft) SW14,5 km/h (3 Bft) S-SW (12:20)
Lindau-Insel420 m22:25-4,9-6,2 (08:30)1,4 (14:45)0,0 l/m²85%1014,93,2 km/h (1 Bft) N11,3 km/h (2 Bft) W (13:55)
Lindau-Stadt412 m22:25-5,5-6,8 (07:45)-0,4 (11:50)0,0 l/m²86%1015,24,8 km/h (1 Bft) NO9,7 km/h (2 Bft) N (01:10)
Maierhöfen im Allgäu733 m22:30-14,3-15,2 (08:10)1,6 (13:30)0,0 l/m²88%1017,00,0 km/h (0 Bft) SW4,8 km/h (1 Bft) O (01:45)
Maselheim-Sulmingen548 m22:25-8,9-8,9 (22:25)-3,7 (23:00)0,0 l/m²92%1017,23,2 km/h (1 Bft) O-SO12,9 km/h (3 Bft) O (23:05)
Mietingen-Baltringen528 m22:25-8,3-8,3 (22:25)-3,3 (00:00)0,0 l/m²88%1017,63,2 km/h (1 Bft) W12,9 km/h (3 Bft) SO (08:20)
Mindelheim-Apfeltrach620 m22:26-13,3-13,3 (22:19)-2,3 (14:59)0,2 l/m²88%1017,00,0 km/h (0 Bft) S6,4 km/h (2 Bft) NO (06:59)
Neresheim552 m22:00-6,1-6,1 (22:00)-3,8 (15:33)0,0 l/m²92%1012,20,0 km/h (0 Bft) S15,1 km/h (3 Bft) O-SO (09:22)
Neukirch570 m22:25-7,3-7,4 (07:10)-0,8 (13:00)0,0 l/m²92%1015,96,4 km/h (2 Bft) NO9,7 km/h (2 Bft) NO (23:30)
Ochsenhausen, Birkenstraße613 m22:25-10,7-10,7 (22:05)-3,5 (14:15)0,0 l/m²84%1016,43,2 km/h (1 Bft) O11,3 km/h (2 Bft) O-NO (08:05)
Ochsenhausen, Unt. Wiesen575 m22:25-10,6-10,6 (22:00)-3,7 (00:00)0,0 l/m²91%1017,39,7 km/h (2 Bft) S14,5 km/h (3 Bft) S-SO (08:05)
Ostrach619 m22:25-8,8-8,8 (22:15)-1,3 (14:40)0,0 l/m²92%1014,10,0 km/h (0 Bft) S-SO17,7 km/h (3 Bft) N-NO (23:00)
Ravensburg428 m22:25-6,1-6,1 (22:25)-0,4 (15:10)0,0 l/m²90%1015,08,0 km/h (2 Bft) N16,1 km/h (3 Bft) N-NO (01:45)
Ravensburg-Wernsreute511 m22:25-7,0-7,1 (22:25)-1,7 (15:25)0,0 l/m²91%1017,88,0 km/h (2 Bft) N22,5 km/h (4 Bft) N-NO (23:30)
Reichenbach an der Fils343 m22:25-5,9-5,9 (22:25)-1,8 (11:20)0,0 l/m²84%1017,314,5 km/h (3 Bft) SO24,1 km/h (4 Bft) O (20:10)
Reinstetten559 m22:25-10,8-10,8 (22:15)-3,2 (00:00)0,0 l/m²91%1016,34,8 km/h (1 Bft) S-SW17,7 km/h (3 Bft) SO (09:35)
Riedlingen530 m22:25-7,7-7,7 (22:20)-3,2 (15:25)0,0 l/m²91%1015,60,0 km/h (0 Bft) O-NO12,9 km/h (3 Bft) O-NO (00:45)
Schemmerhofen520 m22:25-8,7-8,7 (22:20)-3,0 (00:00)0,0 l/m²91%1015,40,0 km/h (0 Bft) SW12,9 km/h (3 Bft) N-NO (04:00)
Silbertal im Montafon (AT)884 m22:25-7,8-9,2 (06:40)-4,6 (14:50)0,0 l/m²90%1017,60,0 km/h (0 Bft) SO3,2 km/h (1 Bft) S-SO (02:00)
Tettnang466 m22:25-5,3-5,9 (07:35)-0,5 (14:55)0,0 l/m²86%1014,09,7 km/h (2 Bft) NO14,5 km/h (3 Bft) O (01:05)
Tuttlingen662 m22:25-7,1-9,6 (05:10)-3,9 (14:35)0,0 l/m²89%1015,61,6 km/h (1 Bft) O-SO11,3 km/h (2 Bft) O-SO (14:40)
Ummendorf547 m22:25-9,9-9,9 (22:00)-3,4 (01:30)0,0 l/m²89%1016,84,8 km/h (1 Bft) S-SO16,1 km/h (3 Bft) SW (13:05)
Ummendorf-Fischbach558 m22:25-10,9-10,9 (22:25)-3,9 (01:25)0,0 l/m²89%1017,30,0 km/h (0 Bft) S-SO14,5 km/h (3 Bft) O-NO (01:35)
Waldburg707 m22:25-7,8-7,8 (22:25)-3,2 (13:05)0,0 l/m²92%1015,30,0 km/h (0 Bft) N14,5 km/h (3 Bft) N (00:15)
Waltenhofen im Allgäu720 m22:25-13,2-13,7 (07:35)-0,8 (13:35)0,2 l/m²89%1016,40,0 km/h (0 Bft) S-SW4,8 km/h (1 Bft) S-SW (11:55)
Weingarten500 m22:25-8,0-8,0 (22:25)-1,5 (14:25)0,0 l/m²89%1015,50,0 km/h (0 Bft) O-NO8,0 km/h (2 Bft) O-NO (00:55)
Winterlingen785 m22:00-6,8-10,0 (07:00)-3,9 (16:00)0,0 l/m²96%1013,65,8 km/h (2 Bft) S7,2 km/h (2 Bft) S-SO (10:40)

Werbung
niederschlagsdatenbank | info | login - erfassung

Sollten Sie Interesse haben, an der Niederschlagsdatenbank teilzunehmen, finden Sie > hier < weitere Informationen.

Niederschlagsdaten der Station Neresheim - Alfred-Delp-Straße 8

Guido Wekemann

Niederschlagsstation aufgenommen ins Stationsnetz der Wetterwarte Süd am 01.09.2008
Monat: .
Anmerkung:0,0 = nicht messbarer Niederschlag
 -  = kein Niederschlag

Stationsdaten

Höhe

552 m

Lage

Auf Google Maps ansehen

Beschreibung

Die Wetterstation liegt in einem Neubaugebiet auf einem in Ost-West-Richtung verlaufenden Geländerücken über der Stadt Neresheim. 500 Meter südlich befindet sich der Talgrund der Egau 498 m ü. NN. Parallel dazu erstreckt sich 150 Meter nördlich der Wetterstation ein kleines Seitental des sich in Nord-Süd-Richtung hinziehenden Dossinger Tals mit einer Höhendifferenz von 44 Meter zum Stationsniveau. Den Horizont bilden im Norden die bewaldeten Höhenzüge bei Dorfmerkingen (Entfernung: ca. vier Kilometer), im Osten der 624 m hohe Bennenberg und der Ulrichsberg mit der Abtei Neresheim (Entfernung: zwei Kilometer), im Süden die Wälder bei Auernheim (Entfernung ca. 3,5 km). Nach Westen reicht der Blick viel weiter: Bei Fernsicht zeigt sich der etwa 20 Kilometer entfernte Volkmarsberg bei Oberkochen am Horizont. Die Klimadaten dieser Station befinden sich urheberrechtlich im Besitz der Wetterwarte Ostalb. Die gewerbliche Nutzung bedarf der ausdrücklichen Zustimmung. Anfragen richten Sie per E-Mail an <a href="mailto:wetterwarte-ostalb@wetterglas.de">wetterwarte-ostalb@wetterglas.de</a> <br/><br/> <a href="/v_1_0/presse/pdf/080119_sz_aa.pdf" target="_blank">Wissenswertes über Guido Wekemann in der Schwäbischen Zeitung vom 19.01.2008</a><br/><br/><h3>Internet:</h3> <a href="http://www.wetterglas.de" target="_blank">www.wetterglas.de</a>
< Dezember 2018

Januar 2019

TagNiederschlagBemerkung
01.3,7
Schneeregen
02.1,3
Schnee
Schneehöhe: 2 cm
03.0,4
Schnee
Schneehöhe: 3 cm
04.3,3
Schnee
Schneehöhe: 3 cm
05.13,5
Schneeregen Schnee
Schneehöhe: 12 cm
06.1,5
Schneeregen
Schneehöhe: 8 cm
07.-
Schneehöhe: 4 cm
08.11,4
Schneeregen Schnee
09.6,5
Schnee
Schneehöhe: 11 cm
10.1,5
Schnee
Schneehöhe: 15 cm
11.4,7
Schnee
Schneehöhe: 16 cm
12.5,4
Schneeregen Schnee
Schneehöhe: 19 cm
13.14,6
Schneeregen
Schneehöhe: 10 cm
14.6,1
Schneeregen Schnee
Schneehöhe: F
15.-
Schneehöhe: 3 cm
16.-
Schneehöhe: F
17.1,8
Regen Schneeregen Schnee
Schneehöhe: R
18.-
Schneehöhe: 3 cm
19.-
20.-
21.-
22.-
23.-
24.-
25.-
26.-
27.-
28.-
29.-
30.-
31.-
Gesamt:75,7 
Die Spalten "Tag" und "Niederschlag" lassen sich durch Klicken auf den Spaltenkopf sortieren.
Die Angaben sind in l/m².

< Dezember 2018


Monats- und Jahresniederschlag


Wetterbeobachtungen Legende:

  • Regen
  • Nieselregen
  • Schneeregen
  • Schnee
  • Graupel
  • Eiskörner
  • Hagel
  • Bodennebel
  • Gewitter
  • Nebelnässe
  • Schneegriesel

Grafische Darstellung der Niederschläge der Station Neresheim Januar 2019

 
wetterstationen
wetterstationen
- derzeit 73 Stationen
niederschlagsdatenbank
wetterstationen
- kartographische Darstellung
niederschlagsdatenbank
niederschlagsstationen
- derzeit 103 Stationen
niederschlagsdatenbank
niederschlagsstationen
- kartographische Darstellung
 
 
Fr. 7.30 Uhr - Sa. 7.30 Uhr (MEZ)
1.Waldburg2,0 l/m²
2.Ulm1,5 l/m²
3.Amstetten-Reutti0,8 l/m²
4.Langenau0,5 l/m²
5.Dornstadt-Tomerdingen0,5 l/m²
6.Eberhardzell
Lilienweg
0,1 l/m²
7.Eislingen0,1 l/m²
8.Langenenslingen0,1 l/m²
9.Kreuzthal-Steinberg-Alpe0,0 l/m²
10.Ehingen
Rosenstraße
0,0 l/m²
11.Füramoos0,0 l/m²
12.Ehingen
Schillerstraße
0,0 l/m²
13.Ravensburg-Schmalegg0,0 l/m²
 
Sa. 19.01.2019 - 7.30 Uhr (MEZ)
1.Kreuzthal-Steinberg-Alpe108 cm
2.Isny54 cm
3.Leutkirch-Adrazhofen45 cm
4.Waldburg40 cm
5.Bad Wurzach-Seibranz39 cm
6.Münsingen-Rietheim34 cm
7.Schelklingen-Gundershofen24 cm
8.Eberhardzell
Lilienweg
19 cm
9.Bad Waldsee-Haisterkirch19 cm
10.Amstetten-Reutti18 cm
11.Ochsenhausen15 cm
12.Horgenzell-Ringgenweiler9 cm
13.Tuttlingen-Möhringen
Eßlinger Straße
8 cm
14.Ravensburg-Schmalegg7 cm
15.Langenenslingen2 cm
16.Ehingen
Schillerstraße
1 cm
17.Ulmalles wieder weg
18.WolpertswendeReste
19.Langenauca 1cm
20.Moosburgstark angezuckert
21.AulendorfReste
22.Öpfingen"Reste"
23.Weingarten
Marienstraße
Reste
24.BalzheimReste
25.Riedhausenr
26.Pfaffenhofen-KadeltshofenReste
27.Bad Saulgau
Walserweg
Reste
28.Weingarten
Laurastraße
Reste
 
  treffpunkt & service
--- Anzeigen --------------------------------
zugriffe:
insgesamt: 40.646.451
aktueller monat: 319.532
heute: 12.444
momentan online: 61
 
 
monatshöchstwert: 653.625
vorheriger monat: 400.931
gestern: 9.684
tageshöchstwert: 45.129
 
wetterwarte süd
 
konradstraße 3
info@wetterwarte-sued.com
roland roth
 
88427 bad schussenried